Torna al catalogo

WEILI KONGJIAN 05-02

AttivoNavigazioneLEO
NORAD 69583·PAYLOAD·🇨🇳 China
Questo nome del satellite non è ancora stato confermato da fonti ufficiali.

Lanciato Jun 17, 2026 da Jiuquan Satellite Launch Center

Loading…

Prossimi Passaggi (prossime 24 ore)

TLE

AggiornatoSource: Space-Track

Epoca: Sep 14, 2026, 12:43 UTC

1 69583U 26138B   26257.53034844  .00000057  00000-0  12131-3 0  9997
2 69583  55.1416 311.7997 0006709 303.2948  56.7380 14.08169671 12660

Traccia WEILI KONGJIAN 05-02 in tempo reale con AllMySat

Download on the App Store